EDT,Max TemperatureF,Mean TemperatureF,Min TemperatureF,Max Dew PointF,MeanDew PointF,Min DewpointF,Max Humidity, Mean Humidity, Min Humidity, Max Sea Level PressureIn, Mean Sea Level PressureIn, Min Sea Level PressureIn, Max VisibilityMiles, Mean VisibilityMiles, Min VisibilityMiles, Max Wind SpeedMPH, Mean Wind SpeedMPH, Max Gust SpeedMPH,PrecipitationIn, CloudCover, Events, WindDirDegrees
2013-6-1,84,75,65,67,65,63,93,74,55,29.97,29.88,29.76,10,10,7,25,15,35,0.39,6,Rain-Thunderstorm,203
2013-6-2,76,69,62,68,61,55,93,72,50,29.91,29.82,29.76,10,8,1,21,10,25,1.09,7,Rain,260
2013-6-3,67,58,48,56,46,31,84,60,36,30.11,30.00,29.89,10,10,9,15,9,18,0.00,5,,6
2013-6-4,73,58,43,46,43,38,86,61,35,30.18,30.14,30.10,10,10,8,14,5,20,0.00,2,,6
2013-6-5,79,65,50,53,47,42,80,58,36,30.16,30.05,29.93,10,10,10,17,7,21,0.02,5,,60
2013-6-6,66,61,55,64,59,48,100,94,87,29.92,29.84,29.79,10,2,0,14,6,16,1.23,8,Fog-Rain,348
2013-6-7,63,59,55,56,55,53,100,89,78,29.90,29.85,29.83,6,3,0,13,7,16,T,8,Fog,352
2013-6-8,73,65,56,55,53,50,93,73,53,30.12,29.98,29.90,7,4,2,12,3,24,0.00,7,,306
2013-6-9,80,70,59,61,57,54,84,66,48,30.15,30.09,29.99,9,6,3,15,8,32,T,7,,104
2013-6-10,74,69,64,67,64,60,93,83,73,29.98,29.84,29.77,10,6,1,20,9,24,0.23,7,Rain,181
2013-6-11,80,72,64,64,63,60,93,74,54,29.91,29.85,29.78,10,6,1,18,8,24,0.03,7,Rain,279
2013-6-12,82,74,65,72,65,62,87,73,58,29.91,29.85,29.68,10,6,4,17,7,26,T,6,Rain-Thunderstorm,236
2013-6-13,73,66,59,64,60,50,93,70,47,29.86,29.67,29.52,10,8,1,23,12,32,0.38,6,Rain-Thunderstorm,310
2013-6-14,73,64,54,57,54,50,93,75,57,30.09,29.98,29.86,10,9,6,15,8,21,0.00,4,,339
2013-6-15,79,65,50,58,51,48,89,62,35,30.13,30.07,30.00,10,9,4,12,4,16,T,3,Rain,242
2013-6-16,77,71,64,67,63,56,93,79,64,30.00,29.92,29.88,10,8,2,17,9,22,0.37,7,Rain-Thunderstorm,224
2013-6-17,82,72,61,65,61,57,100,73,45,29.99,29.94,29.91,10,7,0,23,5,30,0.07,6,Fog-Rain-Thunderstorm,228
2013-6-18,78,68,57,64,58,49,87,72,57,30.01,29.92,29.88,10,9,7,18,8,23,0.00,6,,48
2013-6-19,75,63,50,51,47,45,83,59,35,30.18,30.10,30.02,10,10,9,15,7,20,0.00,0,,47
2013-6-20,81,67,52,53,50,47,83,60,36,30.24,30.20,30.17,10,10,8,9,3,13,0.00,2,,46
2013-6-21,85,78,70,59,55,51,72,55,37,30.27,30.22,30.18,10,9,6,12,4,18,0.00,2,,180
2013-6-22,88,77,65,66,63,58,84,66,48,30.17,30.12,30.06,10,8,6,16,8,26,0.00,5,,198
2013-6-23,89,78,67,69,65,60,90,66,41,30.13,30.09,30.04,10,8,5,17,8,22,0.00,5,,221
2013-6-24,87,77,66,66,63,60,76,60,43,30.13,30.07,30.00,10,8,6,16,8,31,0.00,3,,227
2013-6-25,90,79,68,72,68,63,87,70,52,30.03,29.95,29.87,9,5,0,37,9,47,1.00,6,Rain-Thunderstorm,216
2013-6-26,83,75,67,72,67,65,93,76,58,29.97,29.89,29.80,10,6,1,17,8,23,0.61,7,Rain-Thunderstorm,213
2013-6-27,80,74,68,69,67,65,97,80,62,29.80,29.73,29.65,10,5,1,13,5,15,0.23,7,Rain,294
2013-6-28,81,73,64,66,64,59,93,76,58,29.66,29.58,29.52,10,5,0,13,6,20,0.18,6,Fog-Rain-Thunderstorm,276
2013-6-29,80,70,60,64,61,58,97,73,48,29.71,29.60,29.55,10,8,4,9,5,,0.08,5,Rain-Thunderstorm,254
2013-6-30,80,72,63,66,64,61,93,76,58,29.88,29.78,29.70,10,6,0,15,7,18,0.00,6,Fog,39